TimeMST,TemperatureF,Dew PointF,Humidity,Sea Level PressureIn,VisibilityMPH,Wind Direction,Wind SpeedMPH,Gust SpeedMPH,PrecipitationIn,Events,Conditions,WindDirDegrees,DateUTC
12:15 AM,29.5,15.8,57,30.40,10.0,NW,8.1,-,N/A,,Clear,320,2012-12-05 07:15:00
12:35 AM,29.7,15.6,56,30.40,10.0,WNW,6.9,-,N/A,,Clear,300,2012-12-05 07:35:00
12:55 AM,30.9,16.3,55,30.39,10.0,WNW,4.6,-,N/A,,Clear,300,2012-12-05 07:55:00
1:15 AM,29.5,16.3,58,30.38,10.0,Calm,Calm,-,N/A,,Clear,0,2012-12-05 08:15:00
1:35 AM,29.1,16.2,58,30.38,10.0,North,3.5,-,N/A,,Clear,350,2012-12-05 08:35:00
1:55 AM,25.5,15.3,65,30.38,10.0,Calm,Calm,-,N/A,,Clear,0,2012-12-05 08:55:00
2:15 AM,25.0,14.4,64,30.38,10.0,NW,5.8,-,N/A,,Clear,310,2012-12-05 09:15:00
2:35 AM,27.5,15.1,60,30.38,10.0,WNW,5.8,-,N/A,,Clear,300,2012-12-05 09:35:00
2:55 AM,28.4,15.8,59,30.38,10.0,WNW,6.9,-,N/A,,Clear,300,2012-12-05 09:55:00
3:15 AM,27.7,15.4,60,30.38,10.0,NNW,4.6,-,N/A,,Clear,340,2012-12-05 10:15:00
3:35 AM,27.1,14.2,58,30.38,10.0,North,4.6,-,N/A,,Clear,350,2012-12-05 10:35:00
3:55 AM,25.0,14.0,63,30.38,10.0,NNW,4.6,-,N/A,,Clear,340,2012-12-05 10:55:00
4:15 AM,26.8,15.3,62,30.38,10.0,NW,5.8,-,N/A,,Clear,320,2012-12-05 11:15:00
4:35 AM,27.0,15.6,62,30.38,10.0,NW,8.1,-,N/A,,Clear,310,2012-12-05 11:35:00
4:55 AM,28.2,16.0,60,30.37,10.0,WNW,8.1,-,N/A,,Clear,300,2012-12-05 11:55:00
5:15 AM,30.6,17.2,58,30.37,10.0,NW,5.8,-,N/A,,Clear,310,2012-12-05 12:15:00
5:35 AM,31.1,17.6,57,30.37,10.0,WNW,8.1,-,N/A,,Clear,300,2012-12-05 12:35:00
5:55 AM,29.5,16.9,59,30.38,10.0,NNW,4.6,-,N/A,,Clear,340,2012-12-05 12:55:00
7:55 AM,27.9,16.2,62,30.37,10.0,NW,4.6,-,N/A,,Clear,310,2012-12-05 14:55:00
8:15 AM,30.0,15.8,56,30.37,10.0,NNW,4.6,-,N/A,,Clear,340,2012-12-05 15:15:00
8:35 AM,32.0,16.7,53,30.37,10.0,Calm,Calm,-,N/A,,Clear,0,2012-12-05 15:35:00
9:15 AM,36.1,17.4,47,30.37,10.0,Calm,Calm,-,N/A,,Clear,0,2012-12-05 16:15:00
9:35 AM,38.7,18.1,44,30.36,10.0,Calm,Calm,-,N/A,,Clear,0,2012-12-05 16:35:00
9:55 AM,41.0,18.5,40,30.35,10.0,Calm,Calm,-,N/A,,Clear,0,2012-12-05 16:55:00
10:15 AM,43.9,18.9,37,30.35,10.0,Calm,Calm,-,N/A,,Clear,0,2012-12-05 17:15:00
10:35 AM,45.7,18.9,34,30.34,10.0,Calm,Calm,-,N/A,,Clear,0,2012-12-05 17:35:00
10:55 AM,48.6,19.4,32,30.33,10.0,Calm,Calm,-,N/A,,Clear,0,2012-12-05 17:55:00
11:15 AM,51.6,19.9,29,30.32,10.0,Calm,Calm,-,N/A,,Clear,0,2012-12-05 18:15:00
11:35 AM,53.6,20.1,27,30.29,10.0,Calm,Calm,-,N/A,,Clear,0,2012-12-05 18:35:00
11:55 AM,56.5,20.7,25,30.28,10.0,Calm,Calm,-,N/A,,Clear,0,2012-12-05 18:55:00
12:15 PM,59.0,20.1,22,30.26,10.0,Calm,Calm,-,N/A,,Clear,0,2012-12-05 19:15:00
12:35 PM,60.8,19.4,20,30.24,10.0,Calm,Calm,-,N/A,,Clear,0,2012-12-05 19:35:00
12:55 PM,61.0,20.7,21,30.23,10.0,North,3.5,-,N/A,,Clear,350,2012-12-05 19:55:00
1:15 PM,62.1,20.5,20,30.22,10.0,Calm,Calm,-,N/A,,Clear,0,2012-12-05 20:15:00
1:35 PM,63.7,20.7,19,30.20,10.0,Calm,Calm,-,N/A,,Clear,0,2012-12-05 20:35:00
1:55 PM,64.2,20.3,19,30.19,10.0,Calm,Calm,-,N/A,,Clear,0,2012-12-05 20:55:00
2:15 PM,64.8,19.8,18,30.18,10.0,Calm,Calm,-,N/A,,Clear,0,2012-12-05 21:15:00
2:35 PM,67.1,18.3,15,30.17,10.0,Calm,Calm,-,N/A,,Clear,0,2012-12-05 21:35:00
2:55 PM,66.9,18.5,16,30.16,10.0,Calm,Calm,-,N/A,,Clear,0,2012-12-05 21:55:00
3:15 PM,68.9,18.3,15,30.15,10.0,West,12.7,18.4,N/A,,Clear,280,2012-12-05 22:15:00
3:35 PM,68.9,16.9,14,30.15,10.0,West,12.7,19.6,N/A,,Clear,260,2012-12-05 22:35:00
3:55 PM,68.2,16.9,14,30.15,10.0,West,12.7,19.6,N/A,,Clear,270,2012-12-05 22:55:00
4:15 PM,66.7,15.8,14,30.15,10.0,WNW,12.7,17.3,N/A,,Clear,290,2012-12-05 23:15:00
4:35 PM,64.6,15.8,15,30.15,10.0,West,9.2,-,N/A,,Clear,280,2012-12-05 23:35:00
4:55 PM,61.5,16.7,18,30.15,10.0,West,8.1,-,N/A,,Clear,280,2012-12-05 23:55:00
5:15 PM,55.4,16.5,22,30.15,10.0,West,4.6,-,N/A,,Clear,270,2012-12-06 00:15:00
5:35 PM,53.1,16.7,24,30.15,10.0,West,4.6,-,N/A,,Clear,260,2012-12-06 00:35:00
5:55 PM,52.7,16.5,24,30.15,10.0,West,3.5,-,N/A,,Clear,260,2012-12-06 00:55:00
6:15 PM,54.5,16.7,23,30.15,10.0,West,9.2,-,N/A,,Clear,260,2012-12-06 01:15:00
6:35 PM,55.4,17.2,22,30.15,10.0,West,10.4,-,N/A,,Clear,260,2012-12-06 01:35:00
6:55 PM,54.5,17.4,23,30.15,10.0,West,11.5,-,N/A,,Clear,260,2012-12-06 01:55:00
7:15 PM,51.6,17.2,26,30.16,10.0,WNW,4.6,-,N/A,,Clear,290,2012-12-06 02:15:00
7:35 PM,50.4,16.9,27,30.16,10.0,North,4.6,-,N/A,,Clear,360,2012-12-06 02:35:00
7:55 PM,42.4,14.7,33,30.15,10.0,NW,5.8,-,N/A,,Clear,310,2012-12-06 02:55:00
8:15 PM,43.5,15.6,33,30.15,10.0,WNW,5.8,-,N/A,,Clear,300,2012-12-06 03:15:00
8:35 PM,40.1,15.6,37,30.15,10.0,Calm,Calm,-,N/A,,Clear,0,2012-12-06 03:35:00
8:55 PM,37.6,14.5,39,30.15,10.0,NW,3.5,-,N/A,,Clear,320,2012-12-06 03:55:00
9:15 PM,34.5,14.2,43,30.15,10.0,NNW,5.8,-,N/A,,Clear,330,2012-12-06 04:15:00
9:35 PM,32.5,13.3,45,30.15,10.0,NW,6.9,-,N/A,,Clear,310,2012-12-06 04:35:00
9:55 PM,35.2,14.4,42,30.14,10.0,WNW,3.5,-,N/A,,Clear,300,2012-12-06 04:55:00
10:15 PM,35.4,14.2,42,30.14,10.0,NNW,4.6,-,N/A,,Clear,330,2012-12-06 05:15:00
10:35 PM,36.5,14.7,41,30.14,10.0,WNW,8.1,-,N/A,,Clear,300,2012-12-06 05:35:00
10:55 PM,35.8,14.2,41,30.15,10.0,NNW,4.6,-,N/A,,Clear,340,2012-12-06 05:55:00
11:15 PM,31.3,13.1,47,30.14,10.0,North,3.5,-,N/A,,Clear,10,2012-12-06 06:15:00
11:35 PM,31.3,13.5,48,30.14,10.0,WNW,4.6,-,N/A,,Clear,290,2012-12-06 06:35:00
11:55 PM,32.0,13.6,47,30.14,10.0,NNW,3.5,-,N/A,,Clear,340,2012-12-06 06:55:00